Miscellaneous Local Product
Issued by NWS North Platte, NE

Home | Current Version | Previous Version | Graphics & Text | Print | Product List | Glossary On
Versions: 1 2 3 4 5 6 7 8 9 10 11 12 13 14 15 16 17 18 19 20 21 22 23 24 25 26 27 28 29 30 31 32 33 34 35 36 37 38 39 40 41 42 43 44 45 46 47 48 49 50
000
AXUS43 KLBF 250910
MISLBF


WESTERN AND NORTH CENTRAL NEBRASKA HOURLY WEATHER ROUNDUP
NATIONAL WEATHER SERVICE NORTH PLATTE NE
300 AM CST SUN JAN 25 2015

***STATIONS NOT REPORTING VARIABLES SUCH AS SKY/WEATHER OR
PRESSURE ARE PROVIDED BY THE NEBRASKA DEPARTMENT OF
ROADS...RAWS...AND APRS NETWORKS...AND ARE NOT UNDER
NATIONAL WEATHER SERVICE QUALITY CONTROL***

...OBSERVATIONS IN AND NEAR THE EASTERN PANHANDLE OF NEBRASKA...

CITY           SKY/WX    TMP DP  RH WIND       PRES   REMARKS
PINE RIDGE     CLEAR     27  21  78 W5        30.03R WCI  22
CHADRON        CLEAR     35  26  69 W21       30.05R WCI  24
ALLIANCE       CLEAR     33  25  72 W18       30.03R WCI  22
SIDNEY         PTCLDY    35  25  66 NW14      30.09R WCI  26
$$

...OBSERVATIONS IN NORTH CENTRAL NEBRASKA...

CITY           SKY/WX    TMP DP  RH WIND       PRES   REMARKS
VALENTINE      CLEAR     37  30  75 NW24G35   29.93R WCI  26
THEDFORD       MOCLDY    39  31  74 NW28      29.94R WCI  27
AINSWORTH      CLOUDY    38  29  70 NW31G45   29.90R WCI  26
O`NEILL        DRIZZLE   36  35  96 NW22      29.84R WCI  25
ORD            LGT RAIN  38  34  85 NW28G38   29.83R WCI  26
BROKEN BOW     PTCLDY    41  29  62 NW32G45   29.86R
$$

...OBSERVATIONS IN SOUTHWEST NEBRASKA AND FAR NORTHEAST COLORADO...

CITY           SKY/WX    TMP DP  RH WIND       PRES   REMARKS
WRAY           FAIR      39  28  63 NW20G25   30.05S WCI  29
HOLYOKE        FAIR      39  27  60 NW18G26   30.05R WCI  30
IMPERIAL       CLEAR     39  25  57 NW23G33   30.00S WCI  28
OGALLALA       CLEAR     34  28  80 NW15      30.02R WCI  24
NORTH PLATTE   CLEAR     34  28  79 NW10      29.95R WCI  26
MCCOOK         CLEAR     40  28  62 NW23G31   29.96R WCI  30
LEXINGTON      MOCLDY    41  30  63 NW22G33   29.91R
$$

...NORTH PLATTE AREA...

CITY           SKY/WX    TMP DP  RH WIND       PRES   REMARKS
AIRPORT        CLEAR     34  28  79 NW10      29.95R WCI  26
$$

...SOME WEATHER OBSERVATIONS FROM AROUND THE REGION...

CITY           SKY/WX    TMP DP  RH WIND       PRES   REMARKS
DENVER         PTCLDY    28  25  88 SE12      30.13S WCI  18
LARAMIE        PTCLDY    28  21  75 CALM      30.14S
CHEYENNE       CLEAR     36  25  64 NW16G24   30.11R WCI  26
SCOTTSBLUFF    PTCLDY    37  27  67 W18       30.09R WCI  27
RAPID CITY     CLEAR     37  22  54 NW17      30.02R WCI  27
PIERRE         CLOUDY    37  31  78 NW17      29.91R WCI  27
WINNER         CLOUDY    39  33  79 NW24G35   29.90R WCI  28
SIOUX FALLS    FLURRIES  33  31  92 N17       29.76R WCI  22
OMAHA          LGT RAIN  40  37  89 NW18      29.64R WCI  31
GRAND ISLAND   CLOUDY    40  34  79 NW30G41   29.82R WCI  28
KANSAS CITY    DRIZZLE   45  41  86 W10       29.64S
WICHITA        MOCLDY    50  33  52 NW25G35   29.85R
HAYS           CLEAR     45  27  49 NW22G28   29.93R
LIBERAL        MOCLDY    43  27  52 NW20      30.08R
GOODLAND       PTCLDY    38  26  62 NW25G33   30.04S WCI  27
$$



USA.gov is the U.S. government's official web portal to all federal, state and local government web resources and services.